Regional Weather Roundup
Issued by NWS San Angelo, TX

Home | Current Version | Previous Version | Text Only | Print | Product List | Glossary On
Versions: 1 2 3 4 5 6 7 8 9 10 11 12 13 14 15 16 17 18 19 20 21 22 23 24 25 26 27 28 29 30 31 32 33 34 35 36 37 38 39 40 41 42 43 44 45 46 47 48 49 50
000
ASUS44 KSJT 180610
RWRSJT
WEST CENTRAL TEXAS REGIONAL WEATHER ROUNDUP
NATIONAL WEATHER SERVICE SAN ANGELO TX
1200 AM CST SAT NOV 18 2017

NOTE: "FAIR" INDICATES FEW OR NO CLOUDS BELOW 12,000 FEET WITH NO
SIGNIFICANT WEATHER AND/OR OBSTRUCTIONS TO VISIBILITY.

TXZ049-054-064>066-071>073-076>078-098-099-113-114-127-128-139-140-
154-155-168>170-180700
...LOCATIONS ACROSS WEST CENTRAL TEXAS...

CITY           SKY/WX    TMP DP  RH WIND       PRES   REMARKS
SAN ANGELO     CLEAR     68  61  78 SW14      29.83F
ABILENE        CLEAR     68  62  81 SW22G33   29.75F
DYESS AFB      CLEAR     70  61  73 MISG        N/A
JUNCTION       CLEAR     69  62  78 CALM      29.86F
SWEETWATER     CLEAR     67  60  77 S21       29.80F
BROWNWOOD      CLEAR     68  63  83 S6        29.81S
COLEMAN        CLEAR     69  61  76 SW13G20   29.81F
SONORA         CLEAR     68  63  83 SW7       29.92F
OZONA            N/A    N/A N/A N/A SW8       29.91F
BRADY          NOT AVBL
$$

TEXAS PANHANDLE/OKLAHOMA PANHANDLE

CITY           SKY/WX    TMP DP  RH WIND       PRES   REMARKS
AMARILLO       PTCLDY    69  36  29 W30G37    29.70F
BORGER         CLOUDY    67  34  29 SW16G24   29.63F
CANADIAN       CLOUDY    66  37  34 SW3       29.60R
DALHART        CLOUDY    61  38  42 SW18G24   29.68F
DUMAS          CLEAR     62  36  38 SW20      29.66F
GUYMON         NOT AVBL
HEREFORD       PTCLDY    63  37  38 MISG      29.78S
PAMPA          CLOUDY    64  32  30 W15       29.64F
PERRYTON       CLEAR     68  38  33 W23G31    29.59F
$$

SOUTHERN PANHANDLE/SOUTH PLAINS/ROLLING PLAINS

CITY           SKY/WX    TMP DP  RH WIND       PRES   REMARKS
LUBBOCK        MOCLDY    66  26  22 W17       29.78R
SNYDER         CLEAR     63  57  79 SW10      29.79S
CHILDRESS      PTCLDY    64  30  27 W10       29.65S
SEMINOLE       CLEAR     64  29  27 W14       29.85F
$$

PERMIAN BASIN

CITY           SKY/WX    TMP DP  RH WIND       PRES   REMARKS
MIDLAND        CLEAR     64  50  60 SW14      29.85F
ODESSA         NOT AVBL
WINK           CLEAR     57  31  37 SW6       29.85F
$$

FAR WEST/SOUTHWEST MOUNTAINS/TRANS PECOS

CITY           SKY/WX    TMP DP  RH WIND       PRES   REMARKS
ALPINE         CLEAR     58  27  31 SW7       30.08S
DRYDEN           N/A     62  60  93 N7        29.87F
EL PASO        PTCLDY    71  23  16 W13G22    30.00S
FORT STOCKTON  CLEAR     64  32  30 SW14      29.90F
GUADALUPE PASS CLEAR     62  21  20 W31G40    30.01R
MARFA          CLOUDY    42  23  46 N5        30.07S WCI  39
PECOS          CLEAR     58  28  31 SW8       29.88S
$$

DALLAS/FORT WORTH METROPLEX

CITY           SKY/WX    TMP DP  RH WIND       PRES   REMARKS
DFW AIRPORT    CLOUDY    75  64  68 S21       29.68F
FTW MEACHAM    CLOUDY    75  65  70 S17G29    29.69F
DAL-EXECUTIVE  CLOUDY    75  64  68 S10G25    29.71S
GRAND PRAIRIE  PTCLDY    73  62  69 S10G17    29.73S
ADDISON        PTCLDY    74  64  70 S14G24    29.71F
MESQUITE       MOCLDY    72  64  76 S20G26    29.72S
LANCASTER      CLOUDY    72  64  77 S14G23    29.72F
$$

NORTH CENTRAL TEXAS

CITY           SKY/WX    TMP DP  RH WIND       PRES   REMARKS
SHRMAN/DENISON CLEAR     72  63  73 S20G25    29.66F
GAINESVILLE    CLEAR     69  60  73 S10       29.68F
BRIDGEPORT     NOT AVBL
DENTON         CLEAR     73  63  70 S18       29.68S
WAXAHACHIE     CLOUDY    71  64  79 S16       29.73F
GRANBURY       PTCLDY    74  63  68 S9G20     29.72F
$$

WESTERN NORTH TEXAS

CITY           SKY/WX    TMP DP  RH WIND       PRES   REMARKS
WICHITA FALLS  CLEAR     71  57  61 SW18      29.62F
VERNON         CLOUDY    69  36  30 CALM      29.63S
BRECKENRIDGE   CLEAR     73  61  65 SW18G29   29.72F
COMANCHE       CLEAR     70  64  79 SW14G23   29.78S
$$

CENTRAL AND SOUTH CENTRAL TEXAS

CITY           SKY/WX    TMP DP  RH WIND       PRES   REMARKS
AUSTIN/BERGSTM CLOUDY    71  69  93 S16G23    29.84F
WACO           PTCLDY    72  67  84 S16G30    29.78F
HILLSBORO      CLOUDY    72  66  83 S17G23    29.75F
TEMPLE         CLOUDY    72  69  90 S16       29.81F
KILLEEN-GRAY   CLEAR     70  66  85 S15G22    29.79F
FORT HOOD      CLEAR     69  65  86 S8        29.77F
GEORGETOWN     CLOUDY    73  68  84 S16       29.84S
LAGO VISTA     CLOUDY    72  68  89 S8        29.86F
SAN MARCOS     CLOUDY    70  68  93 S10       29.87S
NEW BRAUNFELS  CLEAR     69  67  93 S12       29.86F
RANDOLPH AFB   CLEAR     69  68  94 SW8       29.88F
SAN ANTONIO    MOCLDY    71  67  87 S9        29.89F
STINSON        PTCLDY    69  67  93 S5        29.87S
PLEASANTON     NOT AVBL
LA GRANGE      CLOUDY    73  70  92 S13G18    29.84F
GIDDINGS       CLOUDY    69  67  90 S10G20    29.86S
$$

EAST TEXAS

CITY           SKY/WX    TMP DP  RH WIND       PRES   REMARKS
PARIS          CLEAR     71  65  81 S14       29.70S
CLARKSVILLE    NOT AVBL
TYLER          PTCLDY    71  65  81 S22G29    29.76F
LONGVIEW       NOT AVBL
PALESTINE      CLOUDY    71  65  83 S14       29.82F
NACOGDOCHES    CLOUDY    70  66  87 S15       29.85F
$$

TEXAS HILL COUNTRY AND EDWARDS PLATEAU

CITY           SKY/WX    TMP DP  RH WIND       PRES   REMARKS
LLANO          CLEAR     61  57  88 CALM      29.87S
HORSESHOE BAY  FAIR      73  65  78 CALM      29.84F
KERRVILLE      CLEAR     67  65  91 S8        29.90F
FREDERICKSBRG  CLEAR     69  62  79 SW13      29.89S
ROCKSPRINGS    NOT AVBL
HONDO          CLEAR     64  62  93 SE3       29.90S
UVALDE         CLEAR     62  60  93 E5        29.89F
DEL RIO        CLEAR     66  64  93 SE3       29.83F
$$

SOUTHEAST TEXAS

CITY           SKY/WX    TMP DP  RH WIND       PRES   REMARKS
COLLEGE STN    MOCLDY    71  68  90 S9        29.85S
CALDWELL       CLOUDY    70  67  91 S13G18    29.85F
CROCKETT         N/A    N/A N/A N/A MISG        N/A
BRENHAM        CLOUDY    72  69  90 S12       29.87S
HUNTSVILLE     PTCLDY    71  67  87 S13G22    29.85F
CONROE         PTCLDY    71  69  93 S9        29.87F
HOUSTON BUSH   PTCLDY    72  69  90 S10       29.88F
HOUSTON HOBBY  PTCLDY    70  69  97 S9        29.88F
PERLAND        CLEAR     73  70  90 S8        29.90F
WHARTON        CLEAR     70  67  88 S12       29.89S
$$

THE UPPER TEXAS COAST

CITY           SKY/WX    TMP DP  RH WIND       PRES   REMARKS
ORANGE         CLOUDY    73  70  91 S10G16    29.93F
PORT ARTHUR    PTCLDY    71  68  90 S9        29.90F
GALVESTON      CLEAR     72  71  97 S15       29.91F
ANGLETON       CLEAR     73  68  84 S14       29.89F
BAY CITY       PTCLDY    72  70  92 S10       29.88F
$$

TEXAS COASTAL BEND, RIO GRANDE PLAINS DEEP SOUTH TEXAS

CITY           SKY/WX    TMP DP  RH WIND       PRES   REMARKS
VICTORIA       CLEAR     72  69  90 S14       29.88S
BEEVILLE       FAIR     N/A N/A N/A S14       29.87S
ROCKPORT       CLEAR     74  71  91 S9G18     29.87F
PORT ARANSAS   NOT AVBL
PORT LAVACA    NOT AVBL
CORPUS CHRISTI CLEAR     72  70  93 S15       29.87F
KINGSVILLE NAS CLEAR     72  71  97 S13       29.87F
COTULLA        CLEAR     72  65  78 S7        29.85S
LAREDO         CLEAR     72  68  87 SE15G23   29.84F
BROWNSVILLE    CLEAR     74  70  87 S9        29.91F
PORT ISABEL    CLEAR     73  70  90 S10       29.90F
HEBBRONVILLE   CLOUDY    70  67  91 S14       29.88F
MCALLEN        CLEAR     74  71  91 S13       29.90F
WESLACO        CLEAR     72  69  90 S7        29.89F
FALFURRIAS     CLEAR     71  67  89 S8        29.88F
EDINBURG       CLEAR     74  70  86 S8        29.89F
$$




USA.gov is the U.S. government's official web portal to all federal, state and local government web resources and services.